Showing default

SPAWAR-CAL-O, 43766

Orbit data source: Space-Track

SPAWAR-CAL-O, 43766 is a payload satellite owned by SPAWAR (US) in SSO that was launched on Mon, 03 Dec 2018 UTC via an FALCON 9 launch vehicle from the Air Force Western Test Range (AFWTR). Payload-class satellites include a variety of spacecraft equipped with specific instruments for various scientific and technological missions. These include communications satellites like Starlink; space stations such as the ISS; scientific satellites like the Hubble; Earth observation satellites from companies like Planet Labs, Umbra, and HawkEye 360; GPS; miniature CubeSats for education and research; and military/defense satellites.

Loading next visibility...
Identifier
43766, 2018-099J
Orbit
SSO
Country
Flag of USUS
Related business
Manufacturer
SPAWAR?
Mission
Operational Defense Calibration
Bus & Motor
CUBESAT 1U, Unknown motor
Mass
1 kg wet, 1 kg dry
Launch date (UTC)
2018-12-03 (7 years ago)
Launch vehicle
FALCON 9
Launch site
Air Force Western Test Range (AFWTR)
Object type
Payload
Rocket body
Debris
Shape & HBR
Box, 0.1 m
Radar Cross Section
0.015 m², Small (<0.1 m²)

Expand to show TLE details & history
Last TLE update: 22 hours ago

TLE from 22 hours ago
0 SPAWAR-CAL-O
1 43766U 18099J   26034.15559805  .00019120  00000-0  66221-3 0  9999
2 43766  97.4531  97.3920 0009864  54.2778 305.9378 15.29850872392991
Epoch: 2026-02-03T03:44Z
TLE epoch observation values (Epoch: 2026-02-03T03:44:03.671Z)
Latitude
-0.00008°
Longitude
-91.96387°
Altitude
475.395 km
Speed
7.63 km/s
True Right ascension
06h 29m 34s
True Declination
0° 00' 00"
Sunlit
Object was in full shadow at epoch
Visualization orbit readout
Latitude
Unknown
Longitude
Unknown
Altitude
Unknown
Speed
Unknown
Apparent Right ascension
Unknown
Apparent Declination
Unknown
Sunlit
N/A
Visualization observer readout
Local Sidereal Time
03:33:23
Azimuth
Unknown
Elevation
Unknown
Doppler factor
Unknown
Orbital elements
Apogee altitude
479.971 km
Perigee altitude
466.454 km
Semi-major axis
6,851.349 km
Eccentricity
0.00099
Inclination
97.4531°
RAAN
97.392°
Arg. of periapsis
54.2778°
True anomaly
305.84622°
Mean anomaly
305.9378°
Eccentric anomaly
305.89201°
Mean motion
3.82718 °/min
Orbital period
94.06 mins
BSTAR
0.00066221
Loading maneuver chart data...
Computing Atmospheric mass density...
Loading historical data...
Loading historical data...
Loading historical data...
Loading historical data...
Loading historical data...
Loading historical data...
Loading historical data...

Documentation

Showing up to 5 results
|